This demonstration page uses our WeatherBlox Daily Observations layout. Learn more.

Hourly Observations for December 1, 2016

Temp ( °F °C ) Dew Point ( °F °C ) Humidity (%) Winds ( mph kmh ) Pressure ( in mb ) Visibility ( mi km ) Precip ( " mm )
12:15 am 00:15 Cloudy with Rain 57 14 57 14 100 100 W 13 20 29.62 1003 5 8.0467 0.04 1.016
12:35 am 00:35 Cloudy 57 14 57 14 100 100 W 8 13 29.59 1002 10 16.0934 0.04 1.016
12:55 am 00:55 Cloudy 55 13 55 13 100 100 W 7 11 29.59 1002 10 16.0934 0.04 1.016
1:15 am 01:15 Cloudy 55 13 55 13 100 100 NW 12 19 29.59 1002 10 16.0934 0.01 0.254
1:35 am 01:35 Cloudy 57 14 55 13 94 94 NW 21 33 29.62 1003 10 16.0934 0.01 0.254
1:55 am 01:55 Mostly Cloudy 55 13 52 11 88 88 WNW 12 19 29.65 1004 10 16.0934 0.01 0.254
2:15 am 02:15 Mostly Cloudy 55 13 50 10 82 82 NW 14 22 29.65 1004 10 16.0934 0 0
2:35 am 02:35 Partly Cloudy 54 12 50 10 88 88 NW 9 15 29.65 1004 10 16.0934 0 0
2:55 am 02:55 Clear 54 12 48 9 82 82 WNW 13 20 29.68 1005 10 16.0934 0 0
3:15 am 03:15 Clear 52 11 46 8 82 82 WNW 9 15 29.68 1005 10 16.0934 0 0
3:35 am 03:35 Clear 52 11 46 8 82 82 NW 12 19 29.68 1005 10 16.0934 0 0
3:55 am 03:55 Clear 54 12 46 8 77 77 WNW 15 24 29.68 1005 10 16.0934 0 0
4:15 am 04:15 Clear 52 11 45 7 77 77 WNW 12 19 29.68 1005 10 16.0934 0 0
4:35 am 04:35 Clear 52 11 45 7 77 77 WNW 10 17 29.68 1005 10 16.0934 0 0
4:55 am 04:55 Clear 52 11 45 7 77 77 WNW 7 11 29.68 1005 10 16.0934 0 0
5:15 am 05:15 Mostly Cloudy 52 11 45 7 77 77 WNW 12 19 29.71 1006 10 16.0934 0 0
5:35 am 05:35 Mostly Cloudy 52 11 43 6 72 72 WNW 9 15 29.71 1006 10 16.0934 0 0
5:55 am 05:55 Mostly Cloudy 50 10 43 6 76 76 WNW 12 19 29.74 1007 10 16.0934 0 0
6:15 am 06:15 Partly Cloudy 50 10 43 6 76 76 WNW 12 19 29.74 1007 10 16.0934 0 0
6:35 am 06:35 Clear 50 10 43 6 76 76 NW 10 17 29.74 1007 10 16.0934 0 0
6:55 am 06:55 Clear 50 10 41 5 71 71 NW 10 17 29.74 1007 10 16.0934 0 0
7:15 am 07:15 Sunny 48 9 39 4 71 71 WNW 8 13 29.77 1008 10 16.0934 0 0
7:35 am 07:35 Partly Cloudy 48 9 39 4 71 71 WNW 15 24 29.77 1008 10 16.0934 0 0
7:55 am 07:55 Partly Cloudy 48 9 37 3 66 66 NW 15 24 29.77 1008 10 16.0934 0 0
8:15 am 08:15 Sunny 50 10 37 3 62 62 WNW 15 24 29.8 1009 10 16.0934 0 0
8:35 am 08:35 Sunny 50 10 37 3 62 62 WNW 13 20 29.8 1009 10 16.0934 0 0
8:55 am 08:55 Sunny 50 10 37 3 62 62 WNW 10 17 29.8 1009 10 16.0934 0 0
9:15 am 09:15 Sunny 52 11 37 3 58 58 NW 14 22 29.8 1009 10 16.0934 0 0
9:35 am 09:35 Sunny 52 11 37 3 58 58 WNW 12 19 29.8 1009 10 16.0934 0 0
9:55 am 09:55 Sunny 52 11 37 3 58 58 WNW 14 22 29.8 1009 10 16.0934 0 0
10:15 am 10:15 Sunny 52 11 37 3 58 58 WNW 9 15 29.8 1009 10 16.0934 0 0
10:35 am 10:35 Partly Cloudy 54 12 37 3 54 54 WNW 12 19 29.8 1009 10 16.0934 0 0
10:55 am 10:55 Partly Cloudy 54 12 37 3 54 54 W 17 28 29.8 1009 10 16.0934 0 0
11:15 am 11:15 Mostly Cloudy 55 13 37 3 51 51 WNW 21 33 29.8 1009 10 16.0934 0 0
11:35 am 11:35 Mostly Cloudy 55 13 37 3 51 51 WNW 14 22 29.8 1009 10 16.0934 0 0
11:55 am 11:55 Cloudy 54 12 36 2 51 51 WNW 17 28 29.8 1009 10 16.0934 0 0
12:15 pm 12:15 Cloudy 54 12 36 2 51 51 WNW 17 28 29.8 1009 10 16.0934 0 0
12:35 pm 12:35 Cloudy 54 12 36 2 51 51 W 17 28 29.8 1009 10 16.0934 0 0
12:55 pm 12:55 Cloudy 54 12 36 2 51 51 W 17 28 29.8 1009 10 16.0934 0 0
1:15 pm 13:15 Mostly Cloudy 54 12 36 2 51 51 W 17 28 29.8 1009 10 16.0934 0 0
1:35 pm 13:35 Partly Cloudy 55 13 36 2 47 47 WNW 21 33 29.8 1009 10 16.0934 0 0
1:55 pm 13:55 Sunny 55 13 36 2 47 47 WNW 22 35 29.8 1009 10 16.0934 0 0
2:15 pm 14:15 Sunny 55 13 36 2 47 47 WNW 22 35 29.8 1009 10 16.0934 0 0
2:35 pm 14:35 Sunny 54 12 36 2 51 51 NW 18 30 29.8 1009 10 16.0934 0 0
2:55 pm 14:55 Sunny 54 12 36 2 51 51 NW 18 30 29.8 1009 10 16.0934 0 0
3:15 pm 15:15 Sunny 52 11 36 2 54 54 NW 25 41 29.83 1010 10 16.0934 0 0
3:35 pm 15:35 Sunny 52 11 34 1 50 50 WNW 21 33 29.83 1010 10 16.0934 0 0
3:55 pm 15:55 Sunny 50 10 34 1 54 54 NW 22 35 29.83 1010 10 16.0934 0 0
4:15 pm 16:15 Sunny 50 10 34 1 54 54 NW 14 22 29.85 1011 10 16.0934 0 0
4:35 pm 16:35 Sunny 48 9 34 1 58 58 WNW 18 30 29.85 1011 10 16.0934 0 0
4:55 pm 16:55 Clear 48 9 32 0 54 54 WNW 23 37 29.88 1012 10 16.0934 0 0
5:15 pm 17:15 Partly Cloudy 48 9 32 0 54 54 WNW 13 20 29.88 1012 10 16.0934 0 0
5:35 pm 17:35 Cloudy 46 8 34 1 62 62 undefined N/A 29.94 1014 10 16.0934 0 0
5:55 pm 17:55 Cloudy 46 8 34 1 62 62 NW 13 20 29.94 1014 10 16.0934 0 0
6:15 pm 18:15 Cloudy 46 8 34 1 62 62 WNW 8 13 29.94 1014 10 16.0934 0 0
6:35 pm 18:35 Mostly Cloudy 46 8 34 1 62 62 NW 12 19 29.94 1014 10 16.0934 0 0
6:55 pm 18:55 Cloudy with Light Rain 59 15 59 15 100 100 Calm 29.68 1005 7 11.26538 0.15 3.81
7:15 pm 19:15 Mostly Cloudy 46 8 34 1 62 62 NW 9 15 29.97 1015 10 16.0934 0 0
7:35 pm 19:35 Cloudy 46 8 32 0 57 57 NW 14 22 29.97 1015 10 16.0934 0 0
7:55 pm 19:55 Cloudy 46 8 32 0 57 57 NW 10 17 29.97 1015 10 16.0934 0 0
8:15 pm 20:15 Cloudy 46 8 32 0 57 57 NW 8 13 29.97 1015 10 16.0934 0 0
8:35 pm 20:35 Cloudy 46 8 32 0 57 57 NW 7 11 29.97 1015 10 16.0934 0 0
8:55 pm 20:55 Cloudy 46 8 32 0 57 57 NW 6 9 29.97 1015 10 16.0934 0 0
9:15 pm 21:15 Cloudy 46 8 32 0 57 57 NW 7 11 29.97 1015 10 16.0934 0 0
9:35 pm 21:35 Cloudy 46 8 34 1 62 62 WNW 10 17 29.97 1015 10 16.0934 0 0
9:55 pm 21:55 Cloudy 46 8 32 0 57 57 WNW 10 17 30 1016 10 16.0934 0 0
10:15 pm 22:15 Cloudy 46 8 32 0 57 57 WNW 14 22 30 1016 10 16.0934 0 0
10:35 pm 22:35 Cloudy 46 8 32 0 57 57 WNW 16 26 30 1016 10 16.0934 0 0
10:55 pm 22:55 Cloudy 46 8 32 0 57 57 WNW 15 24 30 1016 10 16.0934 0 0
11:15 pm 23:15 Cloudy 45 7 32 0 61 61 NW 15 24 30 1016 10 16.0934 0 0
11:35 pm 23:35 Cloudy 45 7 32 0 61 61 WNW 8 13 30 1016 10 16.0934 0 0
11:55 pm 23:55 Cloudy 45 7 32 0 61 61 WNW 15 24 30 1016 10 16.0934 0 0

Powered by AerisWeather